TimeEDT,TemperatureF,Dew PointF,Humidity,Sea Level PressureIn,VisibilityMPH,Wind Direction,Wind SpeedMPH,Gust SpeedMPH,PrecipitationIn,Events,Conditions,WindDirDegrees,DateUTC
12:14 AM,62.6,58.5,86,29.80,10.0,West,9.2,-,N/A,,Clear,270,2012-09-06 04:14:00
12:30 AM,62.2,58.5,87,29.80,10.0,West,9.2,-,N/A,,Clear,270,2012-09-06 04:30:00
12:55 AM,62.6,59.0,88,29.81,10.0,West,9.2,-,N/A,,Clear,270,2012-09-06 04:55:00
1:15 AM,62.1,59.0,90,29.81,10.0,West,8.1,-,N/A,,Clear,270,2012-09-06 05:15:00
1:35 AM,62.2,59.0,89,29.81,10.0,West,5.8,-,N/A,,Clear,260,2012-09-06 05:35:00
1:55 AM,61.7,59.0,91,29.81,10.0,WSW,4.6,-,N/A,,Clear,250,2012-09-06 05:55:00
2:15 AM,61.5,58.5,90,29.81,10.0,WSW,4.6,-,N/A,,Clear,250,2012-09-06 06:15:00
2:34 AM,61.7,58.6,90,29.81,10.0,WSW,5.8,-,N/A,,Clear,250,2012-09-06 06:34:00
2:55 AM,61.9,58.8,90,29.81,10.0,WSW,5.8,-,N/A,,Clear,250,2012-09-06 06:55:00
3:15 AM,63.3,58.5,84,29.82,10.0,West,6.9,-,N/A,,Clear,260,2012-09-06 07:15:00
3:30 AM,63.0,58.6,86,29.81,10.0,WSW,4.6,-,N/A,,Clear,240,2012-09-06 07:30:00
3:55 AM,62.8,59.0,87,29.81,10.0,WSW,8.1,-,N/A,,Clear,250,2012-09-06 07:55:00
4:15 AM,63.3,60.4,90,29.81,10.0,SW,5.8,-,N/A,,Clear,220,2012-09-06 08:15:00
4:36 AM,63.5,60.1,89,29.81,10.0,SW,8.1,-,N/A,,Clear,230,2012-09-06 08:36:00
4:55 AM,63.7,60.1,88,29.81,10.0,SW,8.1,-,N/A,,Clear,230,2012-09-06 08:55:00
5:15 AM,63.9,60.1,87,29.82,10.0,SW,8.1,-,N/A,,Clear,230,2012-09-06 09:15:00
5:35 AM,63.9,59.2,85,29.82,10.0,WSW,8.1,-,N/A,,Clear,240,2012-09-06 09:35:00
5:55 AM,63.1,59.0,86,29.82,10.0,WSW,8.1,-,N/A,,Clear,250,2012-09-06 09:55:00
6:15 AM,63.9,55.6,74,29.83,10.0,West,6.9,-,N/A,,Clear,270,2012-09-06 10:15:00
6:35 AM,62.8,56.3,79,29.83,10.0,West,6.9,-,N/A,,Scattered Clouds,260,2012-09-06 10:35:00
6:55 AM,61.7,56.3,82,29.84,10.0,West,3.5,-,N/A,,Scattered Clouds,270,2012-09-06 10:55:00
7:15 AM,61.0,55.8,83,29.85,10.0,West,3.5,-,N/A,,Clear,270,2012-09-06 11:15:00
7:35 AM,62.6,54.5,75,29.85,10.0,West,3.5,-,N/A,,Clear,280,2012-09-06 11:35:00
7:56 AM,62.6,54.5,75,29.86,10.0,West,5.8,-,N/A,,Clear,270,2012-09-06 11:56:00
8:15 AM,63.0,55.4,76,29.87,10.0,West,5.8,-,N/A,,Clear,270,2012-09-06 12:15:00
8:35 AM,63.7,56.7,78,29.88,10.0,West,4.6,-,N/A,,Scattered Clouds,280,2012-09-06 12:35:00
8:55 AM,64.4,56.1,74,29.88,10.0,West,8.1,-,N/A,,Scattered Clouds,270,2012-09-06 12:55:00
9:15 AM,65.3,55.9,72,29.88,10.0,West,6.9,-,N/A,,Scattered Clouds,270,2012-09-06 13:15:00
9:33 AM,65.8,55.8,70,29.88,10.0,West,5.8,-,N/A,,Clear,260,2012-09-06 13:33:00
9:55 AM,67.3,55.8,66,29.88,10.0,West,8.1,-,N/A,,Clear,260,2012-09-06 13:55:00
10:15 AM,67.8,55.0,64,29.88,10.0,West,9.2,-,N/A,,Clear,260,2012-09-06 14:15:00
10:33 AM,68.5,53.4,58,29.88,10.0,West,9.2,-,N/A,,Clear,270,2012-09-06 14:33:00
10:55 AM,69.3,54.5,59,29.88,10.0,West,9.2,-,N/A,,Clear,270,2012-09-06 14:55:00
11:15 AM,70.2,54.0,56,29.88,10.0,West,9.2,-,N/A,,Clear,260,2012-09-06 15:15:00
11:35 AM,70.7,53.4,54,29.89,10.0,West,8.1,-,N/A,,Clear,260,2012-09-06 15:35:00
11:55 AM,70.0,54.9,59,29.89,10.0,WSW,9.2,-,N/A,,Clear,250,2012-09-06 15:55:00
12:15 PM,70.5,52.3,52,29.89,10.0,West,12.7,16.1,N/A,,Clear,270,2012-09-06 16:15:00
12:35 PM,70.9,52.5,52,29.89,10.0,WSW,9.2,18.4,N/A,,Clear,250,2012-09-06 16:35:00
12:55 PM,70.0,55.8,61,29.89,10.0,WSW,11.5,17.3,N/A,,Clear,240,2012-09-06 16:55:00
1:15 PM,70.9,54.5,56,29.89,10.0,WSW,10.4,17.3,N/A,,Clear,240,2012-09-06 17:15:00
1:35 PM,71.6,51.4,49,29.89,10.0,West,11.5,17.3,N/A,,Clear,260,2012-09-06 17:35:00
1:55 PM,72.3,49.6,45,29.89,10.0,West,11.5,17.3,N/A,,Clear,260,2012-09-06 17:55:00
2:15 PM,72.3,47.5,41,29.88,10.0,WSW,6.9,16.1,N/A,,Clear,250,2012-09-06 18:15:00
2:33 PM,71.8,49.3,45,29.88,10.0,WSW,8.1,-,N/A,,Clear,250,2012-09-06 18:33:00
2:55 PM,71.8,52.3,50,29.88,10.0,WSW,10.4,-,N/A,,Clear,250,2012-09-06 18:55:00
3:15 PM,71.6,53.8,53,29.88,10.0,SW,5.8,18.4,N/A,,Clear,220,2012-09-06 19:15:00
3:33 PM,71.8,50.9,48,29.88,10.0,WSW,13.8,18.4,N/A,,Clear,240,2012-09-06 19:33:00
3:55 PM,72.7,49.8,44,29.87,10.0,WSW,11.5,20.7,N/A,,Clear,240,2012-09-06 19:55:00
4:15 PM,72.7,48.4,42,29.87,10.0,WSW,11.5,18.4,N/A,,Clear,240,2012-09-06 20:15:00
4:35 PM,72.9,49.3,43,29.87,10.0,WSW,11.5,20.7,N/A,,Clear,240,2012-09-06 20:35:00
4:55 PM,72.0,56.1,57,29.88,10.0,WSW,13.8,18.4,N/A,,Clear,240,2012-09-06 20:55:00
5:15 PM,72.0,56.1,57,29.87,10.0,WSW,13.8,18.4,N/A,,Clear,240,2012-09-06 21:15:00
5:35 PM,71.6,55.2,56,29.87,10.0,WSW,10.4,17.3,N/A,,Scattered Clouds,240,2012-09-06 21:35:00
5:55 PM,71.6,55.2,56,29.87,10.0,WSW,9.2,17.3,N/A,,Clear,240,2012-09-06 21:55:00
6:15 PM,70.3,55.4,59,29.88,10.0,WSW,9.2,16.1,N/A,,Scattered Clouds,250,2012-09-06 22:15:00
6:35 PM,70.2,54.7,58,29.88,10.0,WSW,10.4,17.3,N/A,,Scattered Clouds,250,2012-09-06 22:35:00
6:55 PM,70.2,55.8,60,29.88,10.0,WSW,9.2,-,N/A,,Clear,240,2012-09-06 22:55:00
7:09 PM,68.9,56.3,64,29.88,10.0,WSW,8.1,-,N/A,,Clear,240,2012-09-06 23:09:00
7:35 PM,68.4,56.5,66,29.88,10.0,WSW,8.1,-,N/A,,Clear,240,2012-09-06 23:35:00
7:55 PM,67.6,56.7,68,29.88,10.0,WSW,8.1,-,N/A,,Clear,240,2012-09-06 23:55:00
8:15 PM,67.1,57.2,70,29.88,10.0,SW,6.9,-,N/A,,Clear,230,2012-09-07 00:15:00
8:35 PM,67.1,56.8,70,29.88,10.0,WSW,9.2,-,N/A,,Clear,240,2012-09-07 00:35:00
8:55 PM,67.1,56.7,69,29.88,10.0,SW,6.9,-,N/A,,Clear,230,2012-09-07 00:55:00
9:15 PM,66.6,54.9,66,29.89,10.0,SW,6.9,-,N/A,,Clear,230,2012-09-07 01:15:00
9:35 PM,66.2,55.2,68,29.88,10.0,SW,5.8,-,N/A,,Clear,220,2012-09-07 01:35:00
9:55 PM,65.7,55.6,70,29.88,10.0,SSW,6.9,-,N/A,,Clear,210,2012-09-07 01:55:00
10:15 PM,65.3,55.6,71,29.88,10.0,SW,6.9,-,N/A,,Clear,230,2012-09-07 02:15:00
10:35 PM,64.2,55.9,74,29.88,10.0,SW,5.8,-,N/A,,Clear,230,2012-09-07 02:35:00
10:55 PM,64.4,56.3,75,29.88,10.0,SW,5.8,-,N/A,,Clear,220,2012-09-07 02:55:00
11:15 PM,63.7,56.5,77,29.88,10.0,SW,5.8,-,N/A,,Clear,220,2012-09-07 03:15:00
11:35 PM,64.0,56.8,77,29.88,10.0,WSW,5.8,-,N/A,,Clear,240,2012-09-07 03:35:00
11:56 PM,64.2,57.4,78,29.88,10.0,SW,5.8,-,N/A,,Mostly Cloudy,230,2012-09-07 03:56:00